Погода в Кирове

Хотите узнать прогноз погоды в Кирове? Тогда Вам сюда: Погода в Кирове

Поиск расширенной информации на нашем сайте:

Полезная информация:

Новости сайта



02.01.2020
Опубликован Долгосрочный прогноз погоды по городам России и ближнего зарубежья на январь 2020 года.
Карты: Прогноз на январь и февраль 2020 года, Сравнение прогнозируемой аномалии приземной температуры воздуха на январь 2020 года по разным моделям.




Погода в Кирове - сегодня

Время (UTC), дата Ветер
(°,м/с) 
Видим.   Явления Облачность Т
(°С)
Тd
(°С)
f(%) Тe
(°С)
Pmin
(гПа)
dP
(гПа)
Po
(мм)
O2
(г/м3)
Тmin Tmax R s Состояние
почвы
12 03.03.21 290 (З) 3-6{08}  20000 м  слаб. ливневой снег  10/8 300 м кучево-дожд., средняя 
[Cb cap|Ac As]
-3.3 -8.4 68 -5  999.9  0.4  735  301           
15 03.03.21 270 (З) 2-4{08}  20000 м  слаб. ливневой снег  9/9 300 м кучево-дожд. 
[Cb cap]
-4.4 -7.2 81 -6  999.9  -0.1  735  302    -2.3  0.3     
18 03.03.21 260 (З) 3-5{06}  20000 м  {ливн. осадки}  8/8 300 м кучево-дожд. 
[Cb calv]
-5.3 -8.8 76 -8  999.5  -0.5  735  303           
21 03.03.21 260 (З) 1-2{05}  20000 м  {ливн. осадки}  4/4 300 м кучево-дожд. 
[Cb calv]
-8.3 -11.1 80 -8  998.1  -1.6  733  306           
00 04.03.21 210 (ЮЗ) 2-3{04}  20000 м  слаб. ливневой снег  8/8 300 м кучево-дожд. 
[Cb cap]
-6.3 -8.4 85 -8  995.9  -1.9  732  303           
03 04.03.21 220 (ЮЗ) 2-4{06}  4000 м  слаб. ливневой снег  8/8 300 м кучево-дожд. 
[Cb cap]
-5.5 -7.6 85 -7  993.6  -2.3  730  301  -9.1    0.0  80  равномерный
сухой снег
100% 
06 04.03.21 180 (Ю) 2-6{06}  1000 м  ливневой снег  10/8 300 м кучево-дожд., средняя 
[Cb cap|Ac As]
-4.9 -7 85 -6  990.4  -3  728  299           
09 04.03.21 200 (Ю) 2-4{07}  1000 м  ливневой снег  10/10 300 м кучево-дожд. 
[Cb cap]
-3 -4.8 87 -4  987.1  -3.2  726  296           
12 04.03.21 210 (ЮЗ) 1-3{06}  1000 м  ливневой снег  10/10 300 м кучево-дожд. 
[Cb cap]
-1.9 -3.6 88 -1  985  -1.9  724  294           
15 04.03.21 тихо () -0{03}  1000 м  ливневой снег  10/10 300 м кучево-дожд. 
[Cb cap]
-2.5 -3.7 91 -3  985.3  0.2  724  295    -1.8     
18 04.03.21 320 (СЗ) 3-9{09}  4000 м  слаб. ливневой снег  10/10 300 м кучево-дожд. 
[Cb cap]
-5.1 -7.9 81 -7  989.8  4.3  728  300           
21 04.03.21 320 (СЗ) 2-6{10}  20000 м  слаб. ливневой снег  9/9 300 м кучево-дожд. 
[Cb cap]
-7.2 -11.2 73 -9  993.6  3.5  730  303           
00 05.03.21 300 (СЗ) 1-3{06}  20000 м  {ливн. осадки}  ясно 
-11.3 -13.9 81 -11  996.7  2.7  732  309           
03 05.03.21 250 (З) 1-2{04}  20000 м    ясно 
-16.2 -18.1 85 -16  998.5  1.4  733  316  -16.2    0.6  80  равномерный
сухой снег
100% 
06 05.03.21 240 (ЮЗ) 1-3{03}  4000 м  слаб. ливневой снег  10/10 600 м кучево-дожд. 
[Cb cap]
-11 -13 85 -11  999.4  1.4  734  309  -17         
09 05.03.21 280 (З) 2-5{05}  20000 м  в посл. час ливневой снег  8/0 средняя 
[Ac lent]
-7.3 -11.5 72 -9  999.9  0.7  735  305           
12 05.03.21 260 (З) 2-5{07}  20000 м  слаб. ливневой снег  8/8 600 м 
[Sc diur, vesp]
-6.5 -11.6 67 -8  1000.9  736  305           
15 05.03.21 260 (З) 2-3{05}  20000 м  {ливн. осадки}  10/8 600 м средняя 
[Sc diur, vesp|As op]
-8 -11.3 77 -10  1002.8  1.7  737  307    -5.9  0.1     
18 05.03.21 310 (СЗ) 1-2{05}  10 км  слаб. снег{ливн. осадки}  10/8 600 м средняя 
[Sc|As op]
-9.9 -12.1 84 -10  1004.9  1.9  738  310           
21 05.03.21 тихо () -0{07}  20000 м  {снег}  8/8 600 м 
[Sc diur, vesp]
-15.3 -17.6 83 -15  1007.4  740  317           
00 06.03.21 тихо () -0{02}  10 км  слаб. снег  10/8 600 м средняя 
[Sc|As op]
-19.8 -22.1 82 -20  1008.8  741  323           
03 06.03.21 тихо () -0{02}  20000 м  {снег}  ясно 
-23.1 -25.8 78 -23  1009.9  0.8  741  328  -23.2    0.3  82  равномерный
сухой снег
100% 
06 06.03.21 280 (З) 1-3{03}  10 км  слаб. снег  10/0 средняя 
[Ac As]
-15 -17.8 79 -15  1010.7  1.4  742  318  -23.9         
09 06.03.21 310 (СЗ) 1-3{05}  20000 м  {снег}  10/3 600 м средняя 
[Cu hum|Ac und]
-11.7 -16.8 66 -12  1010.9  0.5  743  314           
12 06.03.21 260 (З) 2-3{06}  20000 м  {снег}  10/0 средняя 
[Ac As]
-10.2 -15 68 -12  1010.7  -0.1  743  312           
Время (UTC), дата Ветер
(°,м/с) 
Видим.   Явления Облачность Т
(°С)
Тd
(°С)
f(%) Тe
(°С)
Pmin
(гПа)
dP
(гПа)
Po
(мм)
O2
(г/м3)
Тmin Tmax R s Состояние
почвы

Для получения пояснительной информации подведите курсор к названию столбца.

ПОГОДА в Кирове - архив

Всё, что Вы хотите узнать о погоде в Кирове - удобно и подробно!

Выберите нужную дату (начиная с 1 января 2019* года) и нажмите кнопку "Найти".
Будут отображены архивные сводки погоды по пункту Киров, начиная с указанной даты.


Отображать данные в формате CSV (для использования в таблицах Excel)


Внимание! Наш архив погоды предназначен исключительно для личного некоммерческого использования в познавательных целях. Если Вам необходимы официальные справки о состоянии погоды (для производственных, юридических, коммерческих и т.п. целей), обращайтесь в органы Росгидромета.

*Примечание: данная дата относится к архиву по метеостанциям СССР (Россия, СНГ, Балтия).
Архив по метеостанциям Зарубежной Европы и Азии (кроме Китая) хранится 10 дней, по другим регионам земного шара (Китай, Африка, Америка, Австралия, Океания) - 1 день.

Киров - район местоположения метеостанции


Название, широта, долгота, высота метеостанции:
Киров 58.6°ш. 49.6°д. 158 м над ур. моря [Российская Федерация]

Дополнительная информация

В oтличие oт бoльшинства пoгoдных сайтoв мы публикуем пoдрoбную метеoинфoрмацию в детальнoм прoфессиoнальнoм фoрмате.

Характеристики температуры и влажнoсти вoздуха измеряются на высoте 2 м в тени вдали oт зданий и деревьев.
Скoрoсть ветра измеряется на высoте 10 м (на урoвне рoста челoвека скoрoсть ветра ниже в 1.5-2 раза). Если метеoстанция нахoдится в гoрoде или в лесу, тo скoрoсть ветра занижена на 2-4 м/с пo сравнению с oткрытым местoм. Скoрoсть ветра над акватoриями крупных рек и oзёр, а также на вершинах хoлмoв на 2-5 м/с выше, чем в oбычных услoвиях.
Атмoсфернoе давление в разных тoчках местнoсти мoжет значительнo oтличаться oт давления на метеoстанции, в зависимoсти oт услoвий рельефа (при пoдъёме на 10 м давление пoнижается примернo на 1 мм рт.ст.).